This is the latest recevied weather packets stored in our database for station/object KD6VEX-1. If no packets are shown the sender has not sent any weather packets the latest 10 day(s).
| Time | Temp. | Humidity | Pressure | Rain* | Wind** | Luminosity | Snow |
|---|---|---|---|---|---|---|---|
| 1777237915 | 17.78° C | 54% | 1014.5 hPa | 0 mm | - | - | - |
| 1777237615 | 17.22° C | 55% | 1014.4 hPa | 0 mm | - | - | - |
| 1777237315 | 17.22° C | 55% | 1014.4 hPa | 0 mm | - | - | - |
| 1777237015 | 17.22° C | 56% | 1014.4 hPa | 0 mm | - | - | - |
| 1777236715 | 16.11° C | 57% | 1014.4 hPa | 0 mm | - | - | - |
| 1777236415 | 16.11° C | 57% | 1014.4 hPa | 0 mm | - | - | - |
| 1777236115 | 16.11° C | 58% | 1014.4 hPa | 0 mm | - | - | - |
| 1777235815 | 16.11° C | 60% | 1014.4 hPa | 0 mm | - | - | - |
| 1777235515 | 16.67° C | 59% | 1014.4 hPa | 0 mm | - | - | - |
| 1777235215 | 16.67° C | 60% | 1014.3 hPa | 0 mm | - | - | - |
| 1777234915 | 16.67° C | 62% | 1014.3 hPa | 0 mm | - | - | - |
| 1777234615 | 16.67° C | 63% | 1014.3 hPa | 0 mm | - | - | - |
| 1777234315 | 16.11° C | 63% | 1014.3 hPa | 0 mm | - | - | - |
| 1777234015 | 16.11° C | 63% | 1014.4 hPa | 0 mm | - | - | - |
| 1777233717 | 16.11° C | 62% | 1014.5 hPa | 0 mm | - | - | - |
| 1777233415 | 16.11° C | 62% | 1014.5 hPa | 0 mm | - | - | - |
| 1777233115 | 15.56° C | 64% | 1014.5 hPa | 0 mm | - | - | - |
| 1777232815 | 15.56° C | 63% | 1014.5 hPa | 0 mm | - | - | - |
| 1777232515 | 15.56° C | 66% | 1014.5 hPa | 0 mm | - | - | - |
| 1777232215 | 15.56° C | 68% | 1014.6 hPa | 0 mm | - | - | - |
| 1777231915 | 15° C | 67% | 1014.5 hPa | 0 mm | - | - | - |
| 1777231615 | 15° C | 67% | 1014.6 hPa | 0 mm | - | - | - |
| 1777231315 | 15° C | 65% | 1014.6 hPa | 0 mm | - | - | - |
| 1777231015 | 15° C | 63% | 1014.5 hPa | 0 mm | - | - | - |
| 1777230715 | 15° C | 66% | 1014.5 hPa | 0 mm | - | - | - |
* Rain latest hour (hover to see other rain measurements)
** Current wind speed in m/s (hover to see current wind gust speed)